Regional Weather Roundup
Issued by NWS Spokane, WA

Home | Current Version | Previous Version | Text Only | Print | Product List | Glossary On
Versions: 1 2 3 4 5 6 7 8 9 10 11 12 13 14 15 16 17 18 19 20 21 22 23 24 25 26 27 28 29 30 31 32 33 34 35 36 37 38 39 40 41 42 43 44 45 46 47 48 49 50
000
NZUS01 KOTX 221710
RWROTX
EASTERN WASHINGTON/NORTHERN IDAHO ROUNDUP
NATIONAL WEATHER SERVICE, SPOKANE WA
1000 AM PDT MON SEP 22 2014

Note: "fair" indicated few or no clouds below 12,000 feet with no
significant weather and/or obstructions to visibility.

...NORTHEAST WASHINGTON AND NORTHERN IDAHO PANHANDLE...

CITY           SKY/WX    TMP DP  RH WIND       PRES   REMARKS
SPOKANE INTL   PTSUNNY   68  42  38 S6        29.96R
SPOKANE DOWNTO MOSUNNY   70  50  49 CALM      29.96R
COEUR D ALENE  PTSUNNY   64  52  63 SE5       29.96S
DEER PARK      MOSUNNY   67  47  48 VRB3      29.96R
SANDPOINT      MOSUNNY   63  50  63 CALM      29.97R

...SOUTHEAST WASHINGTON AND SOUTHERN IDAHO PANHANDLE...

CITY           SKY/WX    TMP DP  RH WIND       PRES   REMARKS
WALLA WALLA    MOSUNNY   76  48  37 SW8       29.95R
PULLMAN/MOSCOW CLOUDY    71  43  36 E3        29.99R
LEWISTON       CLOUDY    64  46  52 E5        29.94R
LOWELL           N/A     62  52  69 CALM      30.00S

...COLUMBIA BASIN...

CITY           SKY/WX    TMP DP  RH WIND       PRES   REMARKS
EPHRATA        PTSUNNY   72  44  36 NE7       29.88S
MOSES LAKE     MOSUNNY   71  50  47 E7        29.88F
TRI CITIES     MOSUNNY   77  53  43 SW10      29.89R
HERMISTON      PTSUNNY   79  52  38 W14G23    29.91R
PENDLETON      MOSUNNY   74  46  36 CALM      29.95R

...EAST SLOPES CASCADES...

CITY           SKY/WX    TMP DP  RH WIND       PRES   REMARKS
THE DALLES     CLOUDY    72  52  49 W16       29.94R
YAKIMA         PTSUNNY   66  54  65 SE5       29.92R
ELLENSBURG     PTSUNNY   72  56  57 NW14      29.93R
WENATCHEE      CLOUDY    68  52  56 E6        29.89R
OMAK           PTSUNNY   67  44  43 W3        29.91S

...SOUTHERN BRITISH COLUMBIA...

CITY           SKY/WX    TMP DP  RH WIND       PRES   REMARKS
PENTICTON      PTSUNNY   64  52  63 VRB2      29.92R
CASTLEGAR      PTSUNNY   59  50  72 N3        29.96
CRANBROOK      PTSUNNY   59  46  63 CALM      30.00S

...WESTERN MONTANA...

CITY           SKY/WX    TMP DP  RH WIND       PRES   REMARKS
MISSOULA       MOSUNNY   64  42  44 E3        30.02S

...NEIGHBORING CITIES...

CITY           SKY/WX    TMP DP  RH WIND       PRES   REMARKS
SEATTLE        CLOUDY    63  57  81 S5        30.01S
CALGARY        CLOUDY    75  45  33 VRB3      29.88S



USA.gov is the U.S. government's official web portal to all federal, state and local government web resources and services.